SKW6010 KTUS-KDEN

Flight info

Callsign SKW6010
Flight time 1h 32m
Altitude 37000
Route WLDKT4 SSO J104 ONM DCT GNDLA TBARR4
Aircraft E175/M-SDE3GILORVW/S

Departure

Time 2026-04-23 22:28
Airport Tucson International Airport (KTUS)

Arrival

Time 2026-04-24 00:00
Airport Denver International Airport (KDEN)
Time Latitude Longitude Altitude Speed Heading
2026-04-23 21:47 32.11933 -110.93671 2606 ft 0 kts 255°
2026-04-23 22:16 32.11937 -110.93655 2606 ft 2 kts 255°
2026-04-23 22:16 32.11941 -110.93638 2606 ft 2 kts 255°
2026-04-23 22:16 32.11944 -110.93624 2606 ft 0 kts 255°
2026-04-23 22:16 32.11948 -110.93613 2606 ft 2 kts 215°
2026-04-23 22:17 32.11958 -110.93609 2606 ft 0 kts 178°
2026-04-23 22:17 32.11954 -110.93610 2606 ft 2 kts 175°
2026-04-23 22:17 32.11937 -110.93597 2606 ft 2 kts 135°
2026-04-23 22:17 32.11932 -110.93591 2606 ft 0 kts 135°
2026-04-23 22:20 32.11931 -110.93590 2606 ft 1 kts 135°
2026-04-23 22:20 32.11919 -110.93576 2606 ft 3 kts 135°
2026-04-23 22:20 32.11895 -110.93548 2607 ft 6 kts 140°
2026-04-23 22:21 32.11852 -110.93548 2608 ft 7 kts 218°
2026-04-23 22:21 32.11808 -110.93597 2608 ft 9 kts 225°
2026-04-23 22:21 32.11762 -110.93652 2609 ft 9 kts 224°
2026-04-23 22:21 32.11749 -110.93720 2609 ft 10 kts 308°
2026-04-23 22:22 32.11771 -110.93787 2607 ft 10 kts 232°
2026-04-23 22:22 32.11713 -110.93816 2607 ft 9 kts 141°
2026-04-23 22:22 32.11666 -110.93759 2609 ft 10 kts 135°
2026-04-23 22:22 32.11609 -110.93694 2612 ft 12 kts 135°
2026-04-23 22:23 32.11547 -110.93620 2614 ft 13 kts 135°
2026-04-23 22:23 32.11475 -110.93537 2617 ft 15 kts 135°
2026-04-23 22:23 32.11395 -110.93442 2619 ft 17 kts 135°
2026-04-23 22:23 32.11302 -110.93333 2621 ft 19 kts 135°
2026-04-23 22:24 32.11199 -110.93212 2624 ft 21 kts 135°
2026-04-23 22:24 32.11094 -110.93089 2627 ft 20 kts 135°
2026-04-23 22:24 32.10999 -110.92976 2631 ft 18 kts 135°
2026-04-23 22:24 32.10907 -110.92870 2633 ft 18 kts 135°
2026-04-23 22:25 32.10813 -110.92759 2637 ft 19 kts 134°
2026-04-23 22:25 32.10718 -110.92647 2641 ft 19 kts 135°
2026-04-23 22:25 32.10624 -110.92536 2645 ft 19 kts 135°
2026-04-23 22:25 32.10527 -110.92424 2648 ft 19 kts 135°
2026-04-23 22:26 32.10430 -110.92310 2651 ft 18 kts 135°
2026-04-23 22:26 32.10348 -110.92213 2654 ft 9 kts 135°
2026-04-23 22:26 32.10325 -110.92185 2655 ft 4 kts 139°
2026-04-23 22:26 32.10294 -110.92188 2655 ft 6 kts 223°
2026-04-23 22:27 32.10251 -110.92239 2653 ft 10 kts 224°
2026-04-23 22:27 32.10214 -110.92285 2653 ft 6 kts 252°
2026-04-23 22:27 32.10225 -110.92311 2652 ft 0 kts 314°
2026-04-23 22:27 32.10228 -110.92316 2652 ft 5 kts 314°
2026-04-23 22:28 32.10435 -110.92560 2644 ft 79 kts 315°
2026-04-23 22:28 32.10986 -110.93206 2627 ft 141 kts 314°
2026-04-23 22:28 32.11762 -110.94081 2910 ft 163 kts 314°
2026-04-23 22:28 32.12589 -110.95032 3503 ft 171 kts 312°
2026-04-23 22:29 32.13420 -110.96025 4139 ft 174 kts 312°
2026-04-23 22:29 32.14283 -110.97062 4654 ft 184 kts 311°
2026-04-23 22:29 32.15198 -110.98168 5184 ft 195 kts 312°
2026-04-23 22:29 32.16177 -110.99348 5649 ft 210 kts 311°
2026-04-23 22:30 32.17271 -111.00627 5962 ft 234 kts 312°
2026-04-23 22:30 32.18502 -111.02067 6116 ft 265 kts 313°
2026-04-23 22:30 32.19849 -111.03648 6598 ft 280 kts 313°
2026-04-23 22:30 32.21445 -111.04993 7310 ft 288 kts 339°
2026-04-23 22:31 32.23409 -111.05151 8092 ft 295 kts 11°
2026-04-23 22:31 32.25229 -111.04039 8849 ft 301 kts 39°
2026-04-23 22:31 32.26780 -111.02380 9580 ft 303 kts 40°
2026-04-23 22:31 32.28356 -111.00732 10217 ft 308 kts 38°
2026-04-23 22:32 32.29834 -110.98846 10741 ft 321 kts 59°
2026-04-23 22:32 32.30470 -110.96314 11208 ft 333 kts 84°
2026-04-23 22:32 32.30652 -110.93555 11695 ft 343 kts 85°
2026-04-23 22:32 32.30847 -110.90691 12141 ft 354 kts 85°
2026-04-23 22:33 32.31049 -110.87781 12614 ft 363 kts 85°
2026-04-23 22:33 32.31260 -110.84770 13181 ft 369 kts 85°
2026-04-23 22:33 32.31470 -110.81776 13820 ft 371 kts 84°
2026-04-23 22:33 32.31685 -110.78718 14460 ft 374 kts 84°
2026-04-23 22:34 32.31899 -110.75639 15083 ft 377 kts 84°
2026-04-23 22:34 32.32112 -110.72587 15737 ft 379 kts 84°
2026-04-23 22:34 32.32328 -110.69468 16330 ft 382 kts 84°
2026-04-23 22:34 32.32544 -110.66342 16910 ft 386 kts 84°
2026-04-23 22:35 32.32763 -110.63160 17490 ft 389 kts 84°
2026-04-23 22:35 32.32981 -110.59983 18052 ft 393 kts 84°
2026-04-23 22:35 32.33025 -110.56753 18564 ft 397 kts 92°
2026-04-23 22:35 32.32890 -110.53479 19109 ft 400 kts 93°
2026-04-23 22:36 32.32753 -110.50211 19636 ft 404 kts 93°
2026-04-23 22:36 32.32611 -110.46871 20108 ft 408 kts 93°
2026-04-23 22:36 32.32468 -110.43510 20631 ft 411 kts 93°
2026-04-23 22:36 32.32324 -110.40138 21151 ft 414 kts 93°
2026-04-23 22:37 32.32177 -110.36742 21628 ft 417 kts 93°
2026-04-23 22:37 32.32031 -110.33343 22113 ft 420 kts 94°
2026-04-23 22:37 32.31879 -110.29873 22557 ft 423 kts 95°
2026-04-23 22:37 32.31727 -110.26418 23003 ft 426 kts 95°
2026-04-23 22:38 32.31572 -110.22888 23407 ft 430 kts 94°
2026-04-23 22:38 32.31416 -110.19386 23813 ft 434 kts 95°
2026-04-23 22:38 32.31256 -110.15817 24237 ft 437 kts 94°
2026-04-23 22:38 32.31095 -110.12238 24574 ft 441 kts 95°
2026-04-23 22:39 32.30930 -110.08598 24940 ft 445 kts 95°
2026-04-23 22:39 32.30764 -110.04947 25309 ft 449 kts 95°
2026-04-23 22:39 32.30595 -110.01271 25680 ft 451 kts 94°
2026-04-23 22:39 32.30424 -109.97559 26002 ft 455 kts 95°
2026-04-23 22:40 32.30249 -109.93809 26363 ft 458 kts 95°
2026-04-23 22:40 32.30074 -109.90048 26659 ft 462 kts 95°
2026-04-23 22:40 32.29716 -109.82468 27277 ft 469 kts 95°
2026-04-23 22:41 32.29532 -109.78605 27619 ft 472 kts 95°
2026-04-23 22:41 32.29346 -109.74725 27914 ft 476 kts 95°
2026-04-23 22:41 32.29157 -109.70821 28260 ft 478 kts 95°
2026-04-23 22:41 32.28969 -109.66944 28531 ft 482 kts 95°
2026-04-23 22:42 32.28775 -109.62995 28853 ft 484 kts 95°
2026-04-23 22:42 32.28579 -109.58984 29115 ft 488 kts 95°
2026-04-23 22:42 32.28379 -109.54976 29386 ft 491 kts 95°
2026-04-23 22:42 32.28180 -109.50973 29667 ft 494 kts 95°
2026-04-23 22:43 32.27976 -109.46898 29892 ft 499 kts 95°
2026-04-23 22:43 32.27770 -109.42828 30166 ft 502 kts 95°
2026-04-23 22:43 32.27560 -109.38690 30462 ft 504 kts 95°
2026-04-23 22:43 32.27591 -109.34551 30644 ft 511 kts 85°
2026-04-23 22:44 32.28144 -109.30399 30844 ft 514 kts 75°
2026-04-23 22:44 32.29202 -109.26373 30980 ft 516 kts 66°
2026-04-23 22:44 32.30532 -109.22485 31159 ft 517 kts 60°
2026-04-23 22:44 32.32311 -109.18785 31398 ft 514 kts 51°
2026-04-23 22:45 32.34499 -109.15491 31757 ft 506 kts 41°
2026-04-23 22:45 32.37000 -109.12683 32051 ft 498 kts 31°
2026-04-23 22:45 32.39812 -109.10357 32360 ft 487 kts 21°
2026-04-23 22:45 32.42670 -109.08145 32655 ft 496 kts 29°
2026-04-23 22:46 32.45282 -109.05396 33014 ft 505 kts 37°
2026-04-23 22:46 32.47792 -109.02468 33406 ft 502 kts 36°
2026-04-23 22:46 32.50331 -108.99543 33790 ft 502 kts 36°
2026-04-23 22:46 32.52880 -108.96612 34130 ft 502 kts 36°
2026-04-23 22:47 32.55391 -108.93726 34485 ft 501 kts 36°
2026-04-23 22:47 32.57910 -108.90827 34784 ft 503 kts 36°
2026-04-23 22:47 32.60400 -108.87959 35159 ft 502 kts 36°
2026-04-23 22:47 32.62899 -108.85081 35446 ft 503 kts 36°
2026-04-23 22:48 32.65422 -108.82169 35764 ft 503 kts 36°
2026-04-23 22:48 32.67934 -108.79269 36093 ft 503 kts 36°
2026-04-23 22:48 32.70482 -108.76324 36432 ft 503 kts 36°
2026-04-23 22:48 32.73027 -108.73383 36687 ft 505 kts 36°
2026-04-23 22:49 32.75555 -108.70454 37032 ft 501 kts 35°
2026-04-23 22:49 32.80650 -108.64554 37122 ft 508 kts 36°
2026-04-23 22:50 32.85904 -108.58458 37136 ft 521 kts 36°
2026-04-23 22:50 32.91238 -108.52255 37151 ft 531 kts 37°
2026-04-23 22:51 32.96549 -108.46065 37150 ft 530 kts 36°
2026-04-23 22:51 33.01874 -108.39853 37167 ft 531 kts 37°
2026-04-23 22:52 33.07217 -108.33606 37160 ft 526 kts 37°
2026-04-23 22:52 33.12483 -108.27441 37158 ft 533 kts 38°
2026-04-23 22:53 33.17758 -108.21251 37159 ft 529 kts 37°
2026-04-23 22:53 33.22993 -108.15096 37166 ft 526 kts 37°
2026-04-23 22:54 33.28246 -108.08912 37178 ft 531 kts 38°
2026-04-23 22:54 33.33520 -108.02684 37189 ft 527 kts 37°
2026-04-23 22:55 33.38733 -107.96523 37185 ft 526 kts 37°
2026-04-23 22:55 33.43990 -107.90299 37173 ft 527 kts 37°
2026-04-23 22:56 33.49233 -107.84078 37178 ft 526 kts 37°
2026-04-23 22:56 33.54455 -107.77873 37171 ft 526 kts 38°
2026-04-23 22:57 33.59693 -107.71637 37163 ft 527 kts 37°
2026-04-23 22:57 33.64934 -107.65385 37164 ft 531 kts 38°
2026-04-23 22:58 33.70166 -107.59133 37146 ft 525 kts 37°
2026-04-23 22:58 33.75337 -107.52943 37141 ft 525 kts 37°
2026-04-23 22:59 33.80491 -107.46761 37146 ft 525 kts 38°
2026-04-23 22:59 33.85660 -107.40550 37135 ft 522 kts 37°
2026-04-23 23:00 33.90878 -107.34271 37118 ft 525 kts 38°
2026-04-23 23:00 33.96038 -107.28050 37114 ft 527 kts 38°
2026-04-23 23:01 34.01188 -107.21829 37112 ft 527 kts 38°
2026-04-23 23:01 34.06419 -107.15498 37098 ft 530 kts 38°
2026-04-23 23:02 34.11550 -107.09274 37053 ft 522 kts 38°
2026-04-23 23:02 34.16700 -107.03020 37045 ft 524 kts 38°
2026-04-23 23:03 34.21889 -106.96709 37035 ft 529 kts 38°
2026-04-23 23:03 34.27128 -106.90328 37049 ft 524 kts 36°
2026-04-23 23:04 34.32933 -106.85230 37055 ft 501 kts 17°
2026-04-23 23:04 34.39274 -106.82081 37044 ft 484 kts
2026-04-23 23:04 34.42490 -106.81221 37044 ft 469 kts 355°
2026-04-23 23:05 34.45705 -106.80985 37036 ft 453 kts 346°
2026-04-23 23:05 34.48822 -106.81345 37018 ft 442 kts 341°
2026-04-23 23:05 34.51937 -106.81599 37018 ft 457 kts 347°
2026-04-23 23:06 34.58327 -106.81584 36989 ft 454 kts 348°
2026-04-23 23:06 34.64678 -106.81477 36992 ft 457 kts 349°
2026-04-23 23:07 34.71108 -106.81358 37000 ft 457 kts 349°
2026-04-23 23:07 34.77487 -106.81239 36995 ft 462 kts 348°
2026-04-23 23:08 34.84036 -106.81118 36995 ft 464 kts 349°
2026-04-23 23:08 34.90470 -106.80997 36990 ft 464 kts 349°
2026-04-23 23:09 34.96883 -106.80877 36991 ft 459 kts 348°
2026-04-23 23:09 35.03381 -106.80756 36995 ft 463 kts 349°
2026-04-23 23:10 35.08735 -106.80654 37000 ft 458 kts 349°
2026-04-23 23:10 35.16255 -106.80514 37003 ft 459 kts 349°
2026-04-23 23:11 35.22652 -106.80395 37008 ft 462 kts 349°
2026-04-23 23:11 35.29119 -106.80273 37010 ft 460 kts 349°
2026-04-23 23:12 35.35576 -106.80151 37017 ft 460 kts 349°
2026-04-23 23:12 35.41976 -106.80031 37035 ft 461 kts 349°
2026-04-23 23:13 35.48402 -106.79908 37046 ft 459 kts 349°
2026-04-23 23:13 35.54756 -106.79788 37057 ft 459 kts 349°
2026-04-23 23:14 35.61187 -106.79665 37063 ft 459 kts 349°
2026-04-23 23:14 35.67566 -106.79545 37073 ft 462 kts 349°
2026-04-23 23:15 35.74003 -106.79421 37070 ft 458 kts 349°
2026-04-23 23:15 35.80457 -106.79300 37083 ft 461 kts 349°
2026-04-23 23:16 35.86862 -106.79176 37086 ft 454 kts 349°
2026-04-23 23:16 35.93238 -106.79056 37096 ft 461 kts 349°
2026-04-23 23:17 35.99710 -106.78930 37091 ft 459 kts 349°
2026-04-23 23:17 36.06128 -106.78807 37096 ft 457 kts 349°
2026-04-23 23:18 36.12456 -106.78686 37087 ft 458 kts 349°
2026-04-23 23:18 36.18858 -106.78562 37094 ft 456 kts 349°
2026-04-23 23:19 36.25251 -106.78439 37091 ft 455 kts 349°
2026-04-23 23:19 36.31601 -106.78316 37093 ft 455 kts 349°
2026-04-23 23:20 36.37940 -106.78194 37092 ft 456 kts 349°
2026-04-23 23:20 36.44275 -106.78070 37095 ft 454 kts 349°
2026-04-23 23:21 36.50584 -106.77949 37099 ft 456 kts 349°
2026-04-23 23:21 36.56937 -106.77824 37095 ft 455 kts 349°
2026-04-23 23:22 36.63226 -106.77702 37096 ft 453 kts 349°
2026-04-23 23:22 36.69584 -106.77577 37086 ft 452 kts 349°
2026-04-23 23:23 36.75906 -106.77427 37079 ft 459 kts 352°
2026-04-23 23:23 36.79132 -106.76842 37095 ft 470 kts
2026-04-23 23:23 36.82344 -106.75923 37095 ft 471 kts
2026-04-23 23:24 36.88782 -106.74116 37099 ft 472 kts
2026-04-23 23:24 36.95214 -106.72313 37085 ft 470 kts
2026-04-23 23:25 37.01563 -106.70535 37076 ft 472 kts
2026-04-23 23:25 37.08001 -106.68725 37078 ft 469 kts
2026-04-23 23:26 37.14423 -106.66918 37073 ft 468 kts
2026-04-23 23:26 37.20795 -106.65121 37076 ft 466 kts
2026-04-23 23:27 37.27129 -106.63335 37068 ft 471 kts
2026-04-23 23:27 37.33519 -106.61526 37067 ft 467 kts
2026-04-23 23:28 37.39892 -106.59721 37069 ft 469 kts
2026-04-23 23:28 37.46244 -106.57916 37065 ft 466 kts
2026-04-23 23:29 37.52640 -106.56100 37051 ft 467 kts
2026-04-23 23:29 37.58946 -106.54304 37065 ft 467 kts
2026-04-23 23:30 37.65300 -106.52490 37067 ft 465 kts
2026-04-23 23:30 37.71603 -106.50689 37066 ft 465 kts
2026-04-23 23:31 37.77893 -106.48889 37078 ft 465 kts
2026-04-23 23:31 37.84227 -106.47074 37074 ft 465 kts
2026-04-23 23:32 37.90528 -106.45266 37081 ft 463 kts
2026-04-23 23:32 37.96873 -106.43443 37095 ft 467 kts
2026-04-23 23:33 38.03212 -106.41616 37091 ft 465 kts
2026-04-23 23:33 38.09577 -106.39779 37092 ft 467 kts
2026-04-23 23:34 38.15891 -106.37954 37082 ft 465 kts
2026-04-23 23:34 38.22221 -106.36122 37101 ft 462 kts
2026-04-23 23:35 38.28502 -106.34306 37061 ft 464 kts
2026-04-23 23:35 38.34801 -106.32478 37059 ft 460 kts
2026-04-23 23:36 38.41006 -106.30676 37053 ft 459 kts
2026-04-23 23:36 38.44128 -106.29768 36947 ft 461 kts
2026-04-23 23:36 38.47271 -106.28853 36425 ft 461 kts
2026-04-23 23:36 38.50413 -106.27937 35921 ft 461 kts
2026-04-23 23:37 38.53518 -106.27031 35634 ft 461 kts
2026-04-23 23:37 38.56611 -106.26125 35050 ft 455 kts
2026-04-23 23:37 38.59700 -106.25208 34359 ft 458 kts
2026-04-23 23:37 38.62750 -106.23826 33971 ft 475 kts 13°
2026-04-23 23:38 38.65688 -106.21794 33480 ft 483 kts 22°
2026-04-23 23:38 38.68401 -106.19257 32896 ft 491 kts 33°
2026-04-23 23:38 38.70821 -106.16148 32381 ft 498 kts 43°
2026-04-23 23:38 38.72877 -106.12566 31814 ft 498 kts 50°
2026-04-23 23:39 38.74896 -106.09042 31269 ft 484 kts 45°
2026-04-23 23:39 38.76989 -106.05732 30732 ft 472 kts 45°
2026-04-23 23:39 38.79058 -106.02528 30192 ft 461 kts 44°
2026-04-23 23:39 38.81100 -105.99385 29644 ft 453 kts 44°
2026-04-23 23:40 38.83114 -105.96291 29145 ft 453 kts 45°
2026-04-23 23:40 38.85110 -105.93218 28656 ft 449 kts 45°
2026-04-23 23:40 38.87068 -105.90201 28152 ft 444 kts 45°
2026-04-23 23:40 38.89041 -105.87154 27723 ft 435 kts 45°
2026-04-23 23:41 38.90920 -105.84226 27281 ft 423 kts 45°
2026-04-23 23:41 38.92770 -105.81345 26836 ft 415 kts 45°
2026-04-23 23:41 38.94594 -105.78503 26388 ft 413 kts 46°
2026-04-23 23:41 38.96413 -105.75664 25941 ft 410 kts 46°
2026-04-23 23:42 38.98221 -105.72840 25484 ft 408 kts 46°
2026-04-23 23:42 39.00011 -105.70043 25028 ft 404 kts 46°
2026-04-23 23:42 39.01781 -105.67276 24623 ft 399 kts 46°
2026-04-23 23:42 39.03531 -105.64558 24222 ft 398 kts 46°
2026-04-23 23:43 39.05284 -105.61836 23781 ft 394 kts 46°
2026-04-23 23:43 39.07026 -105.59128 23333 ft 391 kts 46°
2026-04-23 23:43 39.08752 -105.56441 22900 ft 388 kts 46°
2026-04-23 23:43 39.10443 -105.53808 22471 ft 386 kts 46°
2026-04-23 23:44 39.12149 -105.51149 22046 ft 382 kts 46°
2026-04-23 23:44 39.13824 -105.48536 21614 ft 379 kts 46°
2026-04-23 23:44 39.15502 -105.45901 21241 ft 377 kts 47°
2026-04-23 23:44 39.17116 -105.43339 20835 ft 364 kts 47°
2026-04-23 23:45 39.18680 -105.40856 20445 ft 352 kts 47°
2026-04-23 23:45 39.20187 -105.38461 20060 ft 342 kts 47°
2026-04-23 23:45 39.21666 -105.36112 19691 ft 339 kts 47°
2026-04-23 23:45 39.23152 -105.33748 19339 ft 339 kts 48°
2026-04-23 23:46 39.24639 -105.31381 18973 ft 339 kts 48°
2026-04-23 23:46 39.26123 -105.29017 18596 ft 339 kts 48°
2026-04-23 23:46 39.27582 -105.26683 18351 ft 336 kts 50°
2026-04-23 23:46 39.28574 -105.23937 18045 ft 342 kts 76°
2026-04-23 23:47 39.28981 -105.20939 17705 ft 338 kts 79°
2026-04-23 23:47 39.29339 -105.17986 17320 ft 329 kts 80°
2026-04-23 23:47 39.29680 -105.15127 16953 ft 320 kts 80°
2026-04-23 23:47 39.30009 -105.12357 16606 ft 311 kts 80°
2026-04-23 23:48 39.30333 -105.09604 16245 ft 304 kts 79°
2026-04-23 23:48 39.30645 -105.06950 15916 ft 296 kts 79°
2026-04-23 23:48 39.30946 -105.04382 15584 ft 290 kts 79°
2026-04-23 23:48 39.31244 -105.01839 15276 ft 283 kts 79°
2026-04-23 23:49 39.32037 -104.97034 15146 ft 272 kts 74°
2026-04-23 23:49 39.32485 -104.94632 14924 ft 279 kts 74°
2026-04-23 23:49 39.32938 -104.92199 14650 ft 280 kts 74°
2026-04-23 23:50 39.33389 -104.89773 14332 ft 277 kts 74°
2026-04-23 23:50 39.33860 -104.87388 14093 ft 271 kts 69°
2026-04-23 23:50 39.34444 -104.85074 13885 ft 272 kts 69°
2026-04-23 23:50 39.35027 -104.82772 13601 ft 272 kts 69°
2026-04-23 23:51 39.35611 -104.80455 13284 ft 271 kts 69°
2026-04-23 23:51 39.36218 -104.78176 13099 ft 265 kts 65°
2026-04-23 23:51 39.36882 -104.75955 13094 ft 265 kts 65°
2026-04-23 23:51 39.37548 -104.73724 13070 ft 268 kts 65°
2026-04-23 23:52 39.38219 -104.71479 13069 ft 267 kts 65°
2026-04-23 23:52 39.39185 -104.69510 13079 ft 259 kts 34°
2026-04-23 23:52 39.40654 -104.68207 13135 ft 257 kts 28°
2026-04-23 23:52 39.42184 -104.66995 13006 ft 256 kts 20°
2026-04-23 23:53 39.43885 -104.66580 12838 ft 248 kts 358°
2026-04-23 23:53 39.45628 -104.66528 12570 ft 249 kts 358°
2026-04-23 23:53 39.47332 -104.66492 12288 ft 247 kts 358°
2026-04-23 23:53 39.49046 -104.66464 12017 ft 245 kts 357°
2026-04-23 23:54 39.50759 -104.66441 11701 ft 245 kts 357°
2026-04-23 23:54 39.52451 -104.66426 11374 ft 243 kts 356°
2026-04-23 23:54 39.54129 -104.66409 11040 ft 241 kts 357°
2026-04-23 23:54 39.55800 -104.66385 10702 ft 239 kts 356°
2026-04-23 23:55 39.57441 -104.66363 10370 ft 237 kts 356°
2026-04-23 23:55 39.59097 -104.66347 10039 ft 236 kts 356°
2026-04-23 23:55 39.60734 -104.66326 9711 ft 234 kts 356°
2026-04-23 23:55 39.62345 -104.66303 9389 ft 233 kts 356°
2026-04-23 23:56 39.63953 -104.66288 9070 ft 230 kts 357°
2026-04-23 23:56 39.65545 -104.66268 8754 ft 227 kts 356°
2026-04-23 23:56 39.67123 -104.66245 8445 ft 224 kts 356°
2026-04-23 23:56 39.68667 -104.66231 8175 ft 218 kts 357°
2026-04-23 23:57 39.70164 -104.66210 7913 ft 211 kts 357°
2026-04-23 23:57 39.71606 -104.66193 7605 ft 207 kts 356°
2026-04-23 23:57 39.72999 -104.66174 7304 ft 190 kts 358°
2026-04-23 23:57 39.74260 -104.66160 7048 ft 174 kts 357°
2026-04-23 23:58 39.75398 -104.66144 6872 ft 154 kts 356°
2026-04-23 23:58 39.76425 -104.66133 6639 ft 141 kts 355°
2026-04-23 23:58 39.77375 -104.66122 6454 ft 134 kts 356°
2026-04-23 23:58 39.78304 -104.66112 6295 ft 132 kts 355°
2026-04-23 23:59 39.79238 -104.66099 6126 ft 135 kts 355°
2026-04-23 23:59 39.80172 -104.66095 5958 ft 134 kts 355°
2026-04-23 23:59 39.81123 -104.66082 5789 ft 137 kts 356°
2026-04-23 23:59 39.82056 -104.66063 5613 ft 135 kts 355°
2026-04-24 00:00 39.83001 -104.66052 5428 ft 131 kts 355°
2026-04-24 00:00 39.83814 -104.66045 5413 ft 93 kts 359°
2026-04-24 00:00 39.84314 -104.66039 5401 ft 60 kts 360°
2026-04-24 00:00 39.84658 -104.66044 5401 ft 36 kts 354°
2026-04-24 00:01 39.84828 -104.66103 5402 ft 23 kts 335°
2026-04-24 00:01 39.84930 -104.66175 5403 ft 14 kts 329°
2026-04-24 00:01 39.85021 -104.66235 5405 ft 14 kts 341°
2026-04-24 00:01 39.85105 -104.66243 5409 ft 10 kts
2026-04-24 00:02 39.85168 -104.66241 5411 ft 8 kts
2026-04-24 00:02 39.85220 -104.66241 5413 ft 6 kts 360°
2026-04-24 00:02 39.85264 -104.66241 5414 ft 6 kts
2026-04-24 00:02 39.85313 -104.66240 5415 ft 7 kts
2026-04-24 00:03 39.85371 -104.66239 5416 ft 8 kts
2026-04-24 00:03 39.85438 -104.66238 5418 ft 10 kts 360°
2026-04-24 00:03 39.85515 -104.66238 5421 ft 11 kts
2026-04-24 00:03 39.85601 -104.66237 5424 ft 13 kts
2026-04-24 00:04 39.85677 -104.66279 5426 ft 12 kts 277°
2026-04-24 00:04 39.85678 -104.66389 5427 ft 12 kts 270°
2026-04-24 00:04 39.85679 -104.66466 5427 ft 8 kts 279°
2026-04-24 00:04 39.85731 -104.66489 5427 ft 8 kts 359°
2026-04-24 00:05 39.85793 -104.66489 5427 ft 8 kts
2026-04-24 00:05 39.85824 -104.66519 5426 ft 7 kts 272°
2026-04-24 00:05 39.85824 -104.66595 5425 ft 5 kts 271°
2026-04-24 00:05 39.85833 -104.66627 5424 ft 3 kts 336°
2026-04-24 00:06 39.85857 -104.66627 5424 ft 2 kts
2026-04-24 00:06 39.85868 -104.66627 5424 ft 0 kts